period_start,C,m1,H,J0,J1,J2,J3,J4,J5,JA,JB,JC,JD,JJ,JK,JN,#
2016-03-07 00:00:20,0.07,4.10,0.00,21.68,26.70,30.21,14.80,49.32,1021.01,2032.97,2203.48,2189.78,2474.27,600.33,601.63,54.11,0000 0000 0000 0000 000000
2016-03-07 00:05:21,0.05,4.11,0.00,21.66,26.67,30.20,14.69,49.17,1021.02,2032.97,2202.75,2189.04,2473.82,600.03,601.45,54.16,0000 0000 0000 0000 000000
2016-03-07 00:10:22,0.07,4.11,0.00,21.65,26.66,30.20,14.72,49.25,1021.02,2032.98,2201.89,2188.59,2473.04,599.81,601.22,54.21,0000 0000 0000 0000 000000
2016-03-07 00:15:23,0.06,4.11,0.00,21.62,26.64,30.16,14.72,49.23,1021.01,2032.99,2201.05,2188.03,2472.51,600.04,601.47,54.26,0000 0000 0000 0000 000000
2016-03-07 00:20:25,0.06,4.12,0.00,21.61,26.62,30.10,14.77,49.20,1021.00,2032.99,2200.23,2187.66,2472.00,600.30,601.78,54.31,0000 0000 0000 0000 000000
2016-03-07 00:25:26,0.06,4.12,0.00,21.60,26.61,30.10,14.72,49.13,1021.01,2033.00,2199.60,2187.04,2471.36,600.12,601.57,54.36,0000 0000 0000 0000 000000
2016-03-07 00:30:28,0.06,4.12,0.00,21.60,26.59,30.10,14.77,49.41,1020.85,2033.01,2198.78,2186.60,2470.83,600.14,601.43,54.41,0000 0000 0000 0000 000000
2016-03-07 00:35:29,0.04,4.13,0.00,21.60,26.57,30.07,14.81,49.26,1020.95,2033.02,2198.01,2186.01,2470.06,600.46,601.75,54.46,0000 0000 0000 0000 000000
2016-03-07 00:40:30,0.07,4.13,0.00,21.63,26.57,30.03,14.74,49.08,1021.00,2033.10,2197.20,2185.73,2469.72,599.98,601.43,54.51,0000 0000 0000 0000 000000
2016-03-07 00:45:32,0.06,4.13,0.00,21.64,26.55,30.06,14.73,49.28,1020.97,2033.14,2196.63,2185.04,2469.03,599.78,600.97,54.57,0000 0000 0000 0000 000000
2016-03-07 00:50:33,0.07,4.13,0.00,21.66,26.55,30.05,14.64,49.10,1020.91,2033.21,2195.92,2184.68,2468.37,599.76,600.93,54.62,0000 0000 0000 0000 000000
2016-03-07 00:55:34,0.05,4.14,0.00,21.69,26.55,30.04,14.72,49.20,1020.65,2033.20,2195.00,2184.02,2467.78,599.89,600.88,54.67,0000 0000 0000 0000 000000
2016-03-07 01:00:35,0.11,4.14,0.00,21.69,26.54,30.07,14.75,49.39,1020.53,2033.50,2194.11,2183.48,2467.04,600.12,601.10,54.72,0000 0000 0000 0000 000000
2016-03-07 01:05:36,0.07,4.15,0.00,21.69,26.52,30.05,14.70,49.28,1020.53,2033.78,2193.48,2183.00,2466.65,600.13,601.12,54.77,0000 0000 0000 0000 000000
2016-03-07 01:10:37,0.07,4.15,0.00,21.72,26.52,30.05,14.69,49.23,1020.52,2033.80,2192.69,2182.43,2466.00,599.81,600.74,54.82,0000 0000 0000 0000 000000
2016-03-07 01:15:39,0.06,4.16,0.00,21.74,26.52,30.05,14.68,49.36,1020.52,2033.89,2191.90,2182.01,2465.25,599.76,600.66,54.87,0000 0000 0000 0000 000000
2016-03-07 01:20:40,0.07,4.16,0.00,21.72,26.51,30.01,14.67,49.33,1020.53,2033.97,2191.05,2181.39,2464.88,599.88,600.81,54.92,0000 0000 0000 0000 000000
2016-03-07 01:25:41,0.05,4.16,0.00,21.74,26.50,30.04,14.72,49.19,1020.54,2033.98,2190.21,2180.97,2464.10,599.78,600.70,54.97,0000 0000 0000 0000 000000
2016-03-07 01:30:43,0.08,4.17,0.00,21.77,26.50,29.99,14.72,49.11,1020.53,2033.97,2189.39,2180.22,2463.56,600.11,600.92,55.02,0000 0000 0000 0000 000000
2016-03-07 01:35:44,0.03,4.17,0.00,21.78,26.50,30.01,14.69,49.21,1020.54,2033.97,2188.74,2179.92,2462.92,599.93,600.77,55.07,0000 0000 0000 0000 000000
2016-03-07 01:40:45,0.08,4.17,0.00,21.79,26.50,30.02,14.70,49.17,1020.53,2033.98,2187.90,2179.12,2462.09,599.93,600.70,55.12,0000 0000 0000 0000 000000
2016-03-07 01:45:47,0.07,4.17,0.00,21.80,26.50,30.04,14.78,49.34,1020.52,2033.97,2187.02,2178.71,2461.51,599.95,600.76,55.17,0000 0000 0000 0000 000000
2016-03-07 01:50:48,0.05,4.18,0.00,21.82,26.50,30.05,14.65,49.42,1020.52,2033.98,2186.11,2178.01,2460.93,600.18,601.00,55.22,0000 0000 0000 0000 000000
2016-03-07 01:55:49,0.08,4.18,0.00,21.82,26.50,29.99,14.68,49.22,1020.44,2033.97,2185.21,2177.41,2460.10,600.09,600.82,55.27,0000 0000 0000 0000 000000
2016-03-07 02:00:51,0.06,4.19,0.00,21.84,26.50,30.05,14.65,49.33,1020.10,2033.98,2184.40,2176.99,2459.44,600.00,600.31,55.32,0000 0000 0000 0000 000000
2016-03-07 02:05:52,0.06,4.19,0.00,21.86,26.50,30.04,14.69,49.42,1020.06,2033.98,2183.71,2176.31,2458.95,599.91,600.31,55.37,0000 0000 0000 0000 000000
2016-03-07 02:10:54,0.04,4.19,0.00,21.87,26.50,30.07,14.75,49.36,1020.06,2033.98,2182.99,2175.94,2458.11,600.20,600.55,55.43,0000 0000 0000 0000 000000
2016-03-07 02:15:55,0.08,4.20,0.00,21.86,26.50,30.08,14.67,49.35,1020.05,2033.99,2182.17,2175.17,2457.63,599.79,600.14,55.48,0000 0000 0000 0000 000000
2016-03-07 02:20:56,0.04,4.20,0.00,21.85,26.50,30.06,14.80,49.54,1020.04,2033.99,2181.41,2174.96,2457.00,600.04,600.46,55.53,0000 0000 0000 0000 000000
2016-03-07 02:25:57,0.09,4.20,0.00,21.85,26.50,30.04,14.78,49.48,1020.04,2033.99,2180.47,2174.21,2456.22,600.12,600.45,55.58,0000 0000 0000 0000 000000
2016-03-07 02:30:59,0.06,4.21,0.00,21.87,26.50,30.07,14.67,49.23,1020.04,2033.99,2179.58,2173.81,2455.68,599.86,600.19,55.63,0000 0000 0000 0000 000000
2016-03-07 02:36:01,0.06,4.21,0.00,21.86,26.50,30.08,14.68,49.33,1020.04,2033.99,2178.75,2173.03,2455.00,599.87,600.19,55.68,0000 0000 0000 0000 000000
2016-03-07 02:41:01,0.07,4.21,0.00,21.87,26.50,30.09,14.62,49.45,1019.83,2033.99,2177.94,2172.64,2454.24,599.91,600.10,55.73,0000 0000 0000 0000 000000
2016-03-07 02:46:03,0.06,4.22,0.00,21.84,26.50,30.12,14.70,49.59,1019.57,2033.99,2177.10,2172.02,2453.57,600.30,600.38,55.78,0000 0000 0000 0000 000000
2016-03-07 02:51:04,0.07,4.22,0.00,21.86,26.50,30.08,14.71,49.50,1019.58,2033.99,2176.26,2171.43,2452.96,600.01,600.09,55.83,0000 0000 0000 0000 000000
2016-03-07 02:56:05,0.05,4.22,0.00,21.87,26.50,30.06,14.78,49.42,1019.57,2033.99,2175.46,2170.99,2452.15,600.22,600.30,55.88,0000 0000 0000 0000 000000
2016-03-07 03:01:07,0.08,4.23,0.00,21.89,26.50,30.08,14.64,49.36,1019.55,2033.99,2174.76,2170.20,2451.57,599.79,599.78,55.93,0000 0000 0000 0000 000000
2016-03-07 03:06:08,0.04,4.23,0.00,21.89,26.50,30.12,14.69,49.25,1019.55,2033.99,2173.94,2169.81,2450.92,599.82,599.88,55.98,0000 0000 0000 0000 000000
2016-03-07 03:11:09,0.08,4.24,0.00,21.88,26.51,30.08,14.75,49.46,1019.53,2033.99,2173.03,2169.05,2450.09,599.91,599.94,56.03,0000 0000 0000 0000 000000
2016-03-07 03:16:10,0.09,4.24,0.00,21.89,26.52,30.12,14.69,49.37,1019.44,2033.99,2172.16,2168.49,2449.39,599.85,599.80,56.08,0000 0000 0000 0000 000000
2016-03-07 03:21:11,0.05,4.24,0.00,21.88,26.52,30.15,14.71,49.55,1019.17,2033.99,2171.25,2167.99,2448.79,600.08,599.86,56.13,0000 0000 0000 0000 000000
2016-03-07 03:26:12,0.09,4.25,0.00,21.89,26.52,30.10,14.70,49.45,1019.08,2033.99,2170.39,2167.16,2448.01,599.97,599.68,56.18,0000 0000 0000 0000 000000
2016-03-07 03:31:14,0.07,4.25,0.00,21.88,26.52,30.12,14.70,49.48,1019.07,2033.99,2169.53,2166.70,2447.18,600.20,599.94,56.23,0000 0000 0000 0000 000000
2016-03-07 03:36:15,0.06,4.25,0.00,21.90,26.52,30.10,14.71,49.58,1019.07,2033.99,2168.64,2166.01,2446.59,599.93,599.64,56.28,0000 0000 0000 0000 000000
2016-03-07 03:41:16,0.07,4.26,0.00,21.91,26.53,30.13,14.68,49.47,1019.06,2033.99,2167.76,2165.32,2445.89,599.80,599.50,56.34,0000 0000 0000 0000 000000
2016-03-07 03:46:18,0.08,4.26,0.00,21.91,26.53,30.10,14.69,49.63,1018.95,2033.99,2166.70,2164.77,2445.05,599.89,599.47,56.39,0000 0000 0000 0000 000000
2016-03-07 03:51:19,0.07,4.27,0.00,21.89,26.54,30.15,14.76,49.77,1018.59,2033.99,2165.84,2164.03,2444.24,600.06,599.50,56.44,0000 0000 0000 0000 000000
2016-03-07 03:56:20,0.08,4.27,0.00,21.88,26.53,30.15,14.66,49.83,1018.57,2033.99,2164.92,2163.50,2443.66,599.92,599.36,56.49,0000 0000 0000 0000 000000
2016-03-07 04:01:21,0.05,4.27,0.00,21.85,26.53,30.10,14.68,49.96,1018.57,2033.99,2164.02,2162.94,2442.95,599.78,599.36,56.54,0000 0000 0000 0000 000000
2016-03-07 04:06:23,0.08,4.28,0.00,21.83,26.52,30.09,14.71,49.58,1018.58,2033.99,2163.11,2162.15,2442.12,599.80,599.32,56.59,0000 0000 0000 0000 000000
2016-03-07 04:11:24,0.07,4.28,0.00,21.81,26.52,30.07,14.74,49.59,1018.56,2033.99,2162.23,2161.70,2441.49,599.98,599.55,56.64,0000 0000 0000 0000 000000
2016-03-07 04:16:26,0.06,4.28,0.00,21.81,26.52,30.14,14.69,49.81,1018.52,2033.99,2161.32,2161.02,2440.83,599.79,599.34,56.69,0000 0000 0000 0000 000000
2016-03-07 04:21:27,0.09,4.29,0.00,21.85,26.52,30.10,14.69,49.59,1018.22,2033.99,2160.39,2160.37,2440.03,599.74,599.07,56.74,0000 0000 0000 0000 000000
2016-03-07 04:26:28,0.06,4.29,0.00,21.84,26.52,30.07,14.75,49.61,1018.19,2033.99,2159.54,2159.95,2439.30,600.10,599.35,56.79,0000 0000 0000 0000 000000
2016-03-07 04:31:30,0.07,4.30,0.00,21.84,26.52,30.09,14.72,49.66,1018.09,2034.00,2158.72,2159.19,2438.79,600.14,599.38,56.84,0000 0000 0000 0000 000000
2016-03-07 04:36:31,0.06,4.30,0.00,21.84,26.52,30.10,14.71,49.74,1018.08,2034.00,2157.83,2158.74,2438.03,600.06,599.25,56.89,0000 0000 0000 0000 000000
2016-03-07 04:41:32,0.06,4.30,0.00,21.82,26.52,30.11,14.69,49.77,1018.08,2034.01,2156.99,2158.04,2437.26,600.31,599.58,56.94,0000 0000 0000 0000 000000
2016-03-07 04:46:34,0.09,4.31,0.00,21.81,26.51,30.11,14.72,49.58,1018.06,2034.01,2156.11,2157.43,2436.61,600.17,599.36,56.99,0000 0000 0000 0000 000000
2016-03-07 04:51:35,0.05,4.31,0.00,21.79,26.51,30.11,14.71,49.82,1017.80,2034.02,2155.24,2156.95,2435.94,600.03,599.20,57.04,0000 0000 0000 0000 000000
2016-03-07 04:56:37,0.09,4.31,0.00,21.79,26.51,30.16,14.68,49.70,1017.79,2034.01,2154.38,2156.14,2435.10,599.80,599.00,57.09,0000 0000 0000 0000 000000
2016-03-07 05:01:38,0.07,4.32,0.00,21.79,26.51,30.12,14.68,49.48,1017.60,2034.02,2153.43,2155.72,2434.47,599.59,598.62,57.14,0000 0000 0000 0000 000000
2016-03-07 05:06:39,0.07,4.32,0.00,21.80,26.51,30.10,14.66,49.49,1017.59,2034.07,2152.52,2155.02,2433.84,599.86,598.95,57.19,0000 0000 0000 0000 000000
2016-03-07 05:11:41,0.09,4.33,0.00,21.80,26.51,30.09,14.66,49.52,1017.44,2034.07,2151.57,2154.28,2433.01,599.96,598.90,57.25,0000 0000 0000 0000 000000
2016-03-07 05:16:43,0.08,4.33,0.00,21.81,26.50,30.08,14.64,49.73,1017.12,2034.07,2150.56,2153.71,2432.13,600.02,598.71,57.30,0000 0000 0000 0000 000000
2016-03-07 05:21:44,0.08,4.34,0.00,21.79,26.50,30.13,14.73,50.02,1017.11,2034.12,2149.47,2152.99,2431.44,600.12,598.92,57.35,0000 0000 0000 0000 000000
2016-03-07 05:26:45,0.10,4.34,0.00,21.77,26.50,30.08,14.79,49.83,1017.11,2034.21,2148.51,2152.27,2430.77,600.37,599.19,57.40,0000 0000 0000 0000 000000
2016-03-07 05:31:46,0.05,4.34,0.00,21.77,26.50,30.07,14.63,49.70,1017.11,2034.28,2147.71,2151.90,2430.01,599.79,598.56,57.45,0000 0000 0000 0000 000000
2016-03-07 05:36:47,0.09,4.35,0.00,21.77,26.50,30.10,14.73,49.87,1017.10,2034.31,2146.78,2151.09,2429.26,600.25,598.99,57.50,0000 0000 0000 0000 000000
2016-03-07 05:41:49,0.09,4.35,0.00,21.75,26.50,30.07,14.69,49.79,1017.10,2034.38,2145.90,2150.49,2428.53,600.00,598.84,57.55,0000 0000 0000 0000 000000
2016-03-07 05:46:50,0.03,4.35,0.00,21.74,26.50,30.06,14.75,49.85,1017.10,2034.15,2144.98,2149.92,2427.74,600.43,599.34,57.60,0000 0000 0000 0000 000000
2016-03-07 05:51:51,0.08,4.36,0.00,21.74,26.50,30.09,14.67,49.42,1017.11,2034.11,2143.98,2149.12,2426.96,599.99,598.78,57.65,0000 0000 0000 0000 000000
2016-03-07 05:56:52,0.11,4.36,0.00,21.74,26.50,30.07,14.66,49.42,1017.11,2034.19,2142.95,2148.45,2426.11,600.10,598.96,57.70,0000 0000 0000 0000 000000
2016-03-07 06:01:54,0.07,4.37,0.00,21.76,26.50,30.08,14.66,49.50,1017.10,2034.28,2141.94,2147.87,2425.36,599.96,598.78,57.75,0000 0000 0000 0000 000000
2016-03-07 06:06:55,0.08,4.37,0.00,21.76,26.50,30.06,14.71,49.77,1016.94,2034.14,2141.04,2147.07,2424.56,599.87,598.62,57.80,0000 0000 0000 0000 000000
2016-03-07 06:11:56,0.07,4.37,0.00,21.74,26.51,30.07,14.65,49.72,1016.91,2034.11,2140.18,2146.52,2423.91,600.00,598.72,57.85,0000 0000 0000 0000 000000
2016-03-07 06:16:57,0.07,4.38,0.00,21.76,26.52,30.11,14.62,49.53,1016.66,2034.12,2139.20,2145.89,2423.05,599.94,598.32,57.90,0000 0000 0000 0000 000000
2016-03-07 06:21:59,0.08,4.38,0.00,21.77,26.52,30.09,14.71,49.61,1016.63,2034.10,2138.20,2145.09,2422.17,600.58,599.11,57.95,0000 0000 0000 0000 000000
2016-03-07 06:27:00,0.10,4.39,0.00,21.79,26.52,30.08,14.68,49.73,1016.62,2034.09,2137.14,2144.38,2421.35,599.61,598.03,58.00,0000 0000 0000 0000 000000
2016-03-07 06:32:01,0.08,4.39,0.00,21.81,26.52,30.11,14.66,49.85,1016.60,2034.05,2136.00,2143.77,2420.47,599.91,598.33,58.05,0000 0000 0000 0000 000000
2016-03-07 06:37:02,0.08,4.40,0.00,21.81,26.53,30.07,14.59,49.97,1016.55,2034.03,2134.91,2142.99,2419.69,599.92,598.31,58.10,0000 0000 0000 0000 000000
2016-03-07 06:42:04,0.09,4.40,0.00,21.82,26.54,30.07,14.69,49.83,1016.46,2034.11,2133.91,2142.16,2418.87,600.11,598.48,58.15,0000 0000 0000 0000 000000
2016-03-07 06:47:05,0.09,4.41,0.00,21.83,26.55,30.08,14.61,49.86,1016.45,2034.06,2132.88,2141.48,2418.00,599.60,597.91,58.21,0000 0000 0000 0000 000000
2016-03-07 06:52:06,0.07,4.41,0.00,21.84,26.55,30.08,14.72,49.92,1016.49,2034.12,2131.93,2140.90,2417.16,600.40,598.76,58.26,0000 0000 0000 0000 000000
2016-03-07 06:57:07,0.09,4.42,0.00,21.84,26.57,30.08,14.71,50.02,1016.46,2034.09,2130.93,2140.07,2416.32,600.31,598.59,58.31,0000 0000 0000 0000 000000
2016-03-07 07:02:09,0.08,4.42,0.00,21.84,26.57,30.12,14.71,49.91,1016.54,2034.09,2130.05,2139.51,2415.66,600.52,598.78,58.36,0000 0000 0000 0000 000000
2016-03-07 07:07:10,0.05,4.42,0.00,21.87,26.57,30.13,14.65,49.92,1016.60,2034.09,2129.25,2138.97,2414.96,599.91,598.26,58.41,0000 0000 0000 0000 000000
2016-03-07 07:12:11,0.10,4.43,0.00,21.88,26.57,30.13,14.66,49.93,1016.42,2034.09,2128.41,2138.17,2414.11,599.83,597.95,58.46,0000 0000 0000 0000 000000
2016-03-07 07:17:13,0.08,4.43,0.00,21.88,26.58,30.12,14.66,49.87,1016.39,2034.04,2127.41,2137.59,2413.24,600.05,598.32,58.51,0000 0000 0000 0000 000000
2016-03-07 07:22:14,0.08,4.44,0.00,21.87,26.60,30.15,14.65,49.67,1016.53,2034.04,2126.34,2136.85,2412.46,600.21,598.40,58.56,0000 0000 0000 0000 000000
2016-03-07 07:27:15,0.09,4.44,0.00,21.88,26.60,30.16,14.68,49.83,1016.35,2034.00,2125.25,2136.05,2411.58,600.02,598.18,58.61,0000 0000 0000 0000 000000
2016-03-07 07:32:17,0.09,4.44,0.00,21.90,26.60,30.15,14.64,49.77,1016.23,2034.01,2124.21,2135.35,2410.76,600.16,598.23,58.66,0000 0000 0000 0000 000000
2016-03-07 07:37:18,0.08,4.45,0.00,21.90,26.61,30.15,14.66,49.72,1016.24,2034.01,2123.10,2134.69,2409.92,599.81,597.80,58.71,0000 0000 0000 0000 000000
2016-03-07 07:42:19,0.07,4.45,0.00,21.92,26.62,30.19,14.69,49.79,1016.14,2034.00,2122.05,2134.00,2409.05,600.16,598.06,58.76,0000 0000 0000 0000 000000
2016-03-07 07:47:20,0.10,4.46,0.00,21.93,26.62,30.16,14.65,49.88,1016.13,2034.00,2121.15,2133.22,2408.23,599.86,597.80,58.81,0000 0000 0000 0000 000000
2016-03-07 07:52:22,0.08,4.46,0.00,21.93,26.62,30.17,14.60,49.79,1015.94,2034.00,2120.18,2132.71,2407.54,599.87,597.81,58.86,0000 0000 0000 0000 000000
2016-03-07 07:57:23,0.07,4.47,0.00,21.94,26.62,30.21,14.70,49.82,1015.66,2034.00,2119.11,2131.97,2406.69,600.32,598.00,58.91,0000 0000 0000 0000 000000
2016-03-07 08:02:24,0.09,4.47,0.00,21.97,26.63,30.19,14.64,49.93,1015.62,2034.00,2118.12,2131.11,2405.83,600.07,597.60,58.96,0000 0000 0000 0000 000000
2016-03-07 08:07:26,0.09,4.48,0.00,22.00,26.65,30.25,14.57,49.79,1015.31,2034.00,2117.17,2130.45,2404.99,599.78,597.07,59.01,0000 0000 0000 0000 000000
2016-03-07 08:12:27,0.07,4.48,0.00,22.00,26.65,30.21,14.57,49.85,1015.26,2034.00,2116.22,2129.86,2404.13,600.00,597.29,59.06,0000 0000 0000 0000 000000
2016-03-07 08:17:28,0.09,4.49,0.00,22.01,26.65,30.22,14.71,49.94,1015.40,2033.99,2115.17,2129.06,2403.30,600.37,597.77,59.12,0000 0000 0000 0000 000000
2016-03-07 08:22:29,0.10,4.49,0.00,22.02,26.65,30.24,14.68,50.13,1015.16,2033.99,2114.03,2128.28,2402.47,599.92,597.11,59.17,0000 0000 0000 0000 000000
2016-03-07 08:27:31,0.08,4.49,0.00,22.06,26.67,30.28,14.74,50.08,1015.16,2033.99,2112.95,2127.70,2401.73,600.14,597.21,59.22,0000 0000 0000 0000 000000
2016-03-07 08:32:32,0.07,4.50,0.00,22.06,26.67,30.25,14.61,50.02,1015.16,2033.99,2111.94,2127.01,2400.94,600.02,597.20,59.27,0000 0000 0000 0000 000000
2016-03-07 08:37:34,0.09,4.50,0.00,22.07,26.67,30.29,14.66,49.96,1015.16,2033.99,2111.06,2126.25,2400.11,600.18,597.32,59.32,0000 0000 0000 0000 000000
2016-03-07 08:42:35,0.09,4.51,0.00,22.05,26.69,30.24,14.65,49.89,1015.15,2033.99,2110.22,2125.64,2399.36,600.05,597.15,59.37,0000 0000 0000 0000 000000
2016-03-07 08:47:36,0.08,4.51,0.00,22.06,26.70,30.32,14.68,50.01,1015.16,2033.99,2109.16,2124.92,2398.46,600.16,597.14,59.42,0000 0000 0000 0000 000000
2016-03-07 08:52:37,0.09,4.52,0.00,22.06,26.70,30.30,14.62,50.04,1015.15,2033.99,2108.24,2124.09,2397.70,600.06,597.21,59.47,0000 0000 0000 0000 000000
2016-03-07 08:57:39,0.09,4.52,0.00,22.07,26.71,30.33,14.71,50.00,1015.15,2033.99,2107.33,2123.46,2396.86,600.22,597.27,59.52,0000 0000 0000 0000 000000
2016-03-07 09:02:40,0.09,4.52,0.00,22.05,26.72,30.36,14.65,50.15,1015.13,2033.99,2106.19,2122.72,2395.99,599.91,597.00,59.57,0000 0000 0000 0000 000000
2016-03-07 09:07:41,0.07,4.53,0.00,22.05,26.72,30.32,14.71,50.19,1015.14,2033.99,2105.07,2121.97,2395.10,600.11,597.01,59.62,0000 0000 0000 0000 000000
2016-03-07 09:12:43,0.10,4.53,0.00,22.05,26.72,30.34,14.62,50.01,1015.15,2033.99,2104.20,2121.16,2394.29,599.93,597.03,59.67,0000 0000 0000 0000 000000
2016-03-07 09:17:44,0.08,4.54,0.00,22.02,26.74,30.39,14.66,49.96,1015.15,2033.99,2103.40,2120.61,2393.56,600.03,597.17,59.72,0000 0000 0000 0000 000000
2016-03-07 09:22:45,0.06,4.54,0.00,22.03,26.75,30.34,14.63,49.89,1015.15,2033.98,2102.46,2119.95,2392.76,600.01,597.14,59.77,0000 0000 0000 0000 000000
2016-03-07 09:27:47,0.09,4.55,0.00,22.05,26.75,30.34,14.63,49.95,1015.16,2033.99,2101.54,2119.12,2391.95,599.76,596.85,59.82,0000 0000 0000 0000 000000
2016-03-07 09:32:48,0.09,4.55,0.00,22.06,26.75,30.35,14.71,49.91,1015.15,2033.97,2100.59,2118.47,2391.10,600.33,597.44,59.87,0000 0000 0000 0000 000000
2016-03-07 09:37:50,0.07,4.55,0.00,22.09,26.77,30.37,14.61,49.84,1015.16,2033.97,2099.46,2117.85,2390.28,599.80,596.89,59.93,0000 0000 0000 0000 000000
2016-03-07 09:42:51,0.09,4.56,0.00,22.11,26.77,30.36,14.71,49.89,1015.55,2033.96,2098.47,2117.06,2389.51,600.31,597.51,59.98,0000 0000 0000 0000 000000
2016-03-07 09:47:53,0.09,4.56,0.00,22.13,26.77,30.37,14.68,49.89,1015.64,2033.97,2097.50,2116.33,2388.77,600.00,597.32,60.03,0000 0000 0000 0000 000000
2016-03-07 09:52:54,0.06,4.57,0.00,22.14,26.77,30.37,14.59,49.93,1015.61,2033.97,2096.58,2115.77,2387.97,599.91,597.10,60.08,0000 0000 0000 0000 000000
2016-03-07 09:57:55,0.08,4.57,0.00,22.15,26.79,30.37,13.76,45.63,1015.45,2033.96,2095.62,2115.01,2387.08,556.24,549.81,60.12,0000 0000 0000 0000 000009
2016-03-07 10:02:56,0.06,0.15,0.00,22.17,26.83,30.42,14.05,47.79,1015.21,2036.90,3509.85,3121.71,3546.86,574.95,571.87,0.01,0000 0000 0000 0000 000000
2016-03-07 10:07:58,0.06,0.00,0.00,22.18,26.82,30.36,14.63,49.67,1015.17,2037.00,3554.32,3154.66,3585.45,600.50,597.35,0.06,0000 0000 0000 0000 000000
2016-03-07 10:12:59,0.07,0.00,0.00,22.21,26.82,30.39,14.63,49.49,1015.18,2037.00,3552.18,3153.41,3583.83,600.14,596.87,0.11,0000 0000 0000 0000 000000
2016-03-07 10:18:00,0.07,0.01,0.00,22.24,26.82,30.41,14.60,49.28,1015.48,2037.00,3550.21,3152.31,3582.57,599.81,596.62,0.16,0000 0000 0000 0000 000000
2016-03-07 10:23:02,0.07,0.01,0.00,22.28,26.85,30.37,14.56,49.17,1015.27,2036.99,3548.35,3151.12,3581.08,599.96,596.66,0.21,0000 0000 0000 0000 000000
2016-03-07 10:28:03,0.08,0.01,0.00,22.30,26.85,30.38,14.53,49.23,1015.24,2036.99,3546.53,3149.90,3579.58,599.69,596.25,0.26,0000 0000 0000 0000 000000
2016-03-07 10:33:04,0.07,0.02,0.00,22.32,26.87,30.47,14.68,49.31,1015.15,2036.97,3544.76,3148.74,3578.13,600.21,596.74,0.31,0000 0000 0000 0000 000000
2016-03-07 10:38:05,0.08,0.02,0.00,22.32,26.87,30.47,14.62,49.45,1015.01,2036.93,3542.97,3147.56,3576.65,600.02,596.48,0.36,0000 0000 0000 0000 000000
2016-03-07 10:43:07,0.06,0.03,0.00,22.33,26.90,30.49,14.56,49.38,1015.01,2036.90,3541.23,3146.41,3575.30,599.97,596.48,0.41,0000 0000 0000 0000 000000
2016-03-07 10:48:08,0.06,0.03,0.00,22.36,26.90,30.49,14.60,49.37,1015.15,2036.78,3539.43,3145.21,3573.80,600.24,596.76,0.46,0000 0000 0000 0000 000000
2016-03-07 10:53:09,0.06,0.03,0.00,22.36,26.91,30.55,14.62,49.35,1015.12,2036.67,3537.73,3144.08,3572.44,599.99,596.50,0.51,0000 0000 0000 0000 000000
2016-03-07 10:58:10,0.05,0.04,0.00,22.39,26.92,30.50,14.54,49.54,1014.68,2036.47,3536.04,3143.01,3570.98,599.81,595.76,0.56,0000 0000 0000 0000 000000
2016-03-07 11:03:12,0.05,0.04,0.00,22.40,26.94,30.53,14.59,49.73,1014.50,2036.23,3534.28,3141.79,3569.59,600.13,596.04,0.61,0000 0000 0000 0000 000000
2016-03-07 11:08:13,0.06,0.04,0.00,22.40,26.95,30.54,14.61,49.77,1014.21,2036.11,3532.59,3140.69,3568.21,599.93,595.75,0.66,0000 0000 0000 0000 000000
2016-03-07 11:13:14,0.07,0.04,0.00,22.38,26.95,30.58,14.62,49.88,1014.16,2036.07,3530.76,3139.55,3566.81,600.39,596.24,0.71,0000 0000 0000 0000 000000
2016-03-07 11:18:15,0.07,0.05,0.00,22.37,26.97,30.54,14.67,49.93,1014.17,2036.10,3529.07,3138.40,3565.43,599.93,595.78,0.76,0000 0000 0000 0000 000000
2016-03-07 11:23:16,0.07,0.05,0.00,22.34,26.97,30.58,14.57,49.68,1014.18,2036.19,3527.42,3137.32,3564.12,599.48,595.42,0.81,0000 0000 0000 0000 000000
2016-03-07 11:28:18,0.07,0.06,0.00,22.32,26.98,30.60,14.65,49.61,1014.20,2036.10,3525.69,3136.10,3562.64,600.28,596.23,0.86,0000 0000 0000 0000 000000
2016-03-07 11:33:19,0.06,0.06,0.00,22.33,27.00,30.54,14.59,49.44,1014.49,2036.06,3524.00,3135.07,3561.25,599.66,595.77,0.91,0000 0000 0000 0000 000000
2016-03-07 11:38:21,0.07,0.06,0.00,22.32,27.00,30.59,14.58,49.11,1014.66,2036.06,3522.39,3134.05,3559.86,599.78,596.28,0.96,0000 0000 0000 0000 000000
2016-03-07 11:43:22,0.07,0.07,0.00,22.33,27.00,30.58,14.63,49.28,1014.67,2036.03,3520.65,3132.86,3558.51,600.31,596.52,1.01,0000 0000 0000 0000 000000
2016-03-07 11:48:23,0.07,0.07,0.00,22.34,27.01,30.58,14.61,49.33,1014.66,2036.01,3518.94,3131.66,3557.00,600.00,596.22,1.06,0000 0000 0000 0000 000000
2016-03-07 11:53:24,0.08,0.08,0.00,22.32,27.02,30.59,14.49,49.17,1014.69,2036.01,3517.22,3130.49,3555.52,599.61,595.96,1.11,0000 0000 0000 0000 000000
2016-03-07 11:58:26,0.07,0.08,0.00,22.34,27.02,30.59,14.57,49.39,1014.67,2036.01,3515.51,3129.35,3554.07,599.64,595.87,1.16,0000 0000 0000 0000 000000
2016-03-07 12:03:27,0.08,0.08,0.00,22.35,27.03,30.55,14.57,49.25,1014.66,2036.00,3513.77,3128.10,3552.62,599.93,596.17,1.21,0000 0000 0000 0000 000000
2016-03-07 12:08:28,0.08,0.09,0.00,22.37,27.05,30.55,14.62,49.18,1014.66,2036.00,3511.88,3126.84,3551.19,600.18,596.32,1.26,0000 0000 0000 0000 000000
2016-03-07 12:13:30,0.07,0.09,0.00,22.37,27.05,30.59,14.61,49.21,1014.66,2036.00,3510.30,3125.73,3549.70,600.05,596.22,1.31,0000 0000 0000 0000 000000
2016-03-07 12:18:31,0.07,0.10,0.00,22.38,27.05,30.58,14.58,49.20,1014.67,2036.00,3508.51,3124.51,3548.24,600.12,596.26,1.36,0000 0000 0000 0000 000000
2016-03-07 12:23:32,0.08,0.10,0.00,22.40,27.07,30.61,14.64,49.12,1014.81,2036.00,3506.72,3123.34,3546.73,599.99,596.10,1.41,0000 0000 0000 0000 000000
2016-03-07 12:28:34,0.07,0.10,0.00,22.44,27.07,30.66,14.63,48.75,1014.73,2036.00,3504.91,3122.06,3545.28,600.58,596.68,1.46,0000 0000 0000 0000 000000
2016-03-07 12:33:35,0.08,0.11,0.00,22.47,27.07,30.61,14.56,48.92,1014.68,2035.99,3503.11,3120.79,3543.81,599.94,595.91,1.52,0000 0000 0000 0000 000000
2016-03-07 12:38:36,0.07,0.11,0.00,22.49,27.08,30.61,14.55,48.99,1014.66,2035.99,3501.45,3119.68,3542.50,599.69,595.52,1.57,0000 0000 0000 0000 000000
2016-03-07 12:43:37,0.07,0.12,0.00,22.50,27.10,30.66,14.61,49.02,1014.66,2035.99,3499.76,3118.53,3541.07,600.13,596.02,1.62,0000 0000 0000 0000 000000
2016-03-07 12:48:39,0.07,0.12,0.00,22.51,27.10,30.63,14.57,49.25,1014.32,2035.99,3498.08,3117.43,3539.78,600.03,595.70,1.67,0000 0000 0000 0000 000000
2016-03-07 12:53:40,0.07,0.12,0.00,22.52,27.11,30.67,14.63,49.45,1014.17,2035.98,3496.24,3116.16,3538.38,600.16,595.67,1.72,0000 0000 0000 0000 000000